CW6344 Weather Reports


time (UTC)temp
C
wind
direction
speed
KPH
gust
KPH
rain 1hr
cm
rain 24hr
cm
rain mn
cm
humidity
%
barometer
mb
20260508065524 8 278 0.0 0.0 0.00 0.08 0.00 92 1012.3
20260508064454 8 278 0.0 0.0 0.00 0.08 0.00 92 1012.2
20260508062454 8 278 0.0 0.0 0.00 0.08 0.00 92 1012.0
20260508061454 9 278 0.0 0.0 0.00 0.08 0.00 91 1011.9
20260508060524 9 278 0.0 0.0 0.00 0.08 0.00 91 1012.0
20260508055454 9 278 0.0 0.0 0.00 0.08 0.00 92 1011.8
20260508054454 10 278 0.0 0.0 0.00 0.08 0.00 91 1011.9
20260508053454 9 278 0.0 0.0 0.00 0.08 0.00 91 1011.8
20260508052524 10 278 0.0 0.0 0.00 0.13 0.00 91 1011.8
20260508051454 10 278 0.0 0.0 0.00 0.18 0.00 91 1011.8
20260508050454 10 278 0.0 0.0 0.00 0.18 0.00 91 1011.8
20260508045454 10 278 0.0 0.0 0.00 0.18 0.00 91 1011.8
20260508044454 10 278 0.0 0.0 0.00 0.18 0.00 91 1011.8
20260508043454 10 279 0.0 0.0 0.00 0.18 0.00 91 1011.8
20260508042454 10 279 0.0 0.0 0.00 0.18 0.00 90 1011.7
20260508041454 9 279 0.0 0.0 0.00 0.18 0.00 90 1011.7
20260508040454 9 279 0.0 0.0 0.00 0.18 0.18 90 1011.6
20260508035454 9 279 1.6 1.6 0.00 0.18 0.18 90 1011.6
20260508034454 9 200 0.0 0.0 0.00 0.18 0.18 90 1011.4
20260508033454 9 181 0.0 0.0 0.00 0.18 0.18 89 1011.3
20260508032454 9 181 0.0 0.0 0.00 0.18 0.18 89 1011.3
20260508031454 8 181 0.0 0.0 0.00 0.18 0.18 89 1011.3
20260508030454 8 179 0.0 0.0 0.00 0.18 0.18 89 1011.2
20260508025454 8 176 0.0 0.0 0.00 0.18 0.18 89 1011.2
20260508024454 8 176 0.0 0.0 0.00 0.18 0.18 88 1011.3
20260508023455 8 176 0.0 0.0 0.00 0.18 0.18 88 1011.2
20260508022455 8 176 0.0 0.0 0.00 0.18 0.18 88 1011.2
20260508021455 8 176 0.0 0.0 0.00 0.18 0.18 88 1011.2
20260508020455 8 176 0.0 0.0 0.00 0.18 0.18 87 1011.2
20260508015454 9 176 0.0 0.0 0.00 0.18 0.18 87 1011.1
20260508014454 9 176 0.0 0.0 0.00 0.18 0.18 87 1011.0
20260508013454 9 175 0.0 0.0 0.00 0.18 0.18 86 1011.0
20260508012455 9 175 0.0 0.0 0.00 0.18 0.18 86 1011.0
20260508011454 9 175 0.0 0.0 0.00 0.18 0.18 86 1010.8
20260508010455 10 175 0.0 0.0 0.00 0.18 0.18 85 1010.7
20260508004455 10 175 0.0 0.0 0.00 0.18 0.18 85 1010.5
20260508003455 10 175 0.0 0.0 0.00 0.18 0.18 86 1010.3
20260508002455 10 175 0.0 0.0 0.00 0.18 0.18 85 1010.3
20260508000457 11 175 0.0 0.0 0.00 0.18 0.18 86 1010.2
20260507235455 11 175 0.0 0.0 0.00 0.18 0.18 85 1009.9
20260507234455 11 175 0.0 0.0 0.00 0.18 0.18 84 1009.7
20260507233455 11 175 0.0 0.0 0.00 0.18 0.18 84 1009.7
20260507232455 12 175 0.0 0.0 0.00 0.18 0.18 83 1009.7
20260507231455 12 175 0.0 0.0 0.00 0.18 0.18 82 1009.5
20260507230455 12 176 0.0 0.0 0.00 0.18 0.18 81 1009.4
20260507224455 12 225 0.0 0.0 0.00 0.18 0.18 80 1009.4
20260507223455 12 147 0.0 1.6 0.00 0.18 0.18 77 1009.5
20260507222455 12 232 1.6 1.6 0.00 0.18 0.18 81 1009.4
20260507221455 12 279 0.0 0.0 0.00 0.18 0.18 79 1009.5
20260507220525 12 279 0.0 0.0 0.00 0.18 0.18 77 1009.5
20260507215455 12 327 0.0 0.0 0.00 0.18 0.18 79 1009.8
20260507214455 12 312 0.0 1.6 0.00 0.18 0.18 80 1009.9
20260507213455 12 238 0.0 3.2 0.00 0.18 0.18 82 1009.8
20260507212455 12 324 0.0 0.0 0.00 0.18 0.18 84 1009.7
20260507211455 11 260 0.0 0.0 0.00 0.18 0.18 84 1009.9
20260507210455 11 126 0.0 0.0 0.00 0.18 0.18 86 1009.8
20260507205455 12 99 0.0 0.0 0.03 0.18 0.18 85 1009.7
20260507204455 12 99 0.0 0.0 0.03 0.18 0.18 84 1009.5
20260507203455 11 48 0.0 0.0 0.05 0.18 0.18 85 1009.7
20260507202625 11 273 0.0 0.0 0.05 0.18 0.18 83 1010.4
20260507201455 12 272 0.0 0.0 0.05 0.18 0.18 81 1009.9
20260507200455 12 273 0.0 0.0 0.05 0.18 0.18 85 1009.5
20260507195455 12 272 0.0 0.0 0.03 0.15 0.15 81 1010.0
20260507194455 12 273 0.0 0.0 0.03 0.15 0.15 81 1010.0
20260507193455 12 272 0.0 0.0 0.00 0.13 0.13 78 1010.0
20260507192455 12 272 0.0 0.0 0.00 0.13 0.13 75 1010.4
20260507191455 12 272 0.0 0.0 0.00 0.13 0.13 74 1010.2
20260507190455 12 272 0.0 0.0 0.00 0.13 0.13 71 1010.1
20260507185455 13 272 0.0 0.0 0.00 0.13 0.13 64 1010.3
20260507184525 13 272 0.0 1.6 0.00 0.13 0.13 61 1010.3
20260507183455 13 325 0.0 3.2 0.00 0.13 0.13 64 1010.3
20260507182555 13 324 0.0 1.6 0.00 0.13 0.13 67 1010.4
20260507181455 13 274 0.0 0.0 0.00 0.13 0.13 63 1010.5
20260507180525 13 274 0.0 0.0 0.00 0.13 0.13 61 1010.8
20260507175455 13 298 0.0 0.0 0.00 0.13 0.13 68 1010.6
20260507174455 13 285 0.0 0.0 0.00 0.13 0.13 68 1010.9
20260507173455 13 284 0.0 0.0 0.00 0.13 0.13 67 1011.1
20260507172455 13 284 0.0 0.0 0.00 0.13 0.13 64 1011.4
20260507171455 13 279 0.0 0.0 0.00 0.13 0.13 62 1011.2
20260507170455 13 311 0.0 0.0 0.00 0.13 0.13 60 1011.1
20260507165455 14 287 0.0 0.0 0.00 0.13 0.13 58 1011.4
20260507164455 14 271 3.2 3.2 0.00 0.13 0.13 54 1011.2
20260507163455 14 328 0.0 0.0 0.00 0.13 0.13 58 1011.5
20260507162455 14 319 0.0 3.2 0.00 0.15 0.13 59 1011.6
20260507161455 14 289 0.0 0.0 0.00 0.15 0.13 59 1011.6
20260507160455 14 344 0.0 1.6 0.00 0.18 0.13 56 1011.9
20260507155455 14 192 0.0 1.6 0.00 0.23 0.13 62 1011.7
20260507154525 13 334 0.0 0.0 0.00 0.30 0.13 63 1011.7
20260507153455 13 319 0.0 0.0 0.00 0.30 0.13 60 1011.8
20260507152455 13 319 0.0 1.6 0.00 0.33 0.13 55 1012.0
20260507151455 14 282 0.0 1.6 0.00 0.33 0.13 58 1011.8
20260507150455 13 44 1.6 1.6 0.00 0.36 0.13 63 1011.9
20260507145455 13 360 0.0 1.6 0.00 0.36 0.13 55 1012.1
20260507144525 13 63 0.0 1.6 0.00 0.36 0.13 58 1012.0
20260507143455 14 311 3.2 4.8 0.00 0.36 0.13 58 1012.2
20260507142455 14 294 1.6 1.6 0.00 0.38 0.13 65 1012.2
20260507141455 14 51 0.0 1.6 0.00 0.38 0.13 65 1012.2
20260507140455 14 142 0.0 3.2 0.00 0.38 0.13 67 1012.0
20260507134455 14 342 0.0 1.6 0.00 0.38 0.13 74 1011.8
20260507133455 14 241 0.0 6.4 0.00 0.38 0.13 76 1012.0
20260507132455 14 295 0.0 0.0 0.00 0.38 0.13 79 1012.1
20260507131455 14 344 0.0 1.6 0.00 0.38 0.13 79 1012.0
20260507130455 14 9 1.6 1.6 0.00 0.38 0.13 80 1012.1
20260507125455 14 276 0.0 0.0 0.00 0.38 0.13 82 1012.0
20260507124625 13 164 0.0 0.0 0.00 0.38 0.13 83 1011.9
20260507123455 13 209 0.0 0.0 0.00 0.38 0.13 84 1011.6
20260507122455 13 57 0.0 0.0 0.00 0.38 0.13 84 1011.8
20260507121455 13 261 0.0 0.0 0.00 0.38 0.13 85 1011.8
20260507120525 13 328 0.0 0.0 0.00 0.38 0.13 85 1012.0
20260507115455 13 40 0.0 0.0 0.03 0.38 0.13 86 1011.8
20260507114455 13 40 0.0 0.0 0.03 0.38 0.13 87 1011.8
20260507113455 13 40 0.0 1.6 0.03 0.38 0.13 87 1012.0
20260507112455 13 19 0.0 0.0 0.03 0.38 0.13 88 1011.9
20260507111455 13 19 0.0 0.0 0.03 0.38 0.13 88 1011.6
20260507110455 12 119 0.0 1.6 0.03 0.38 0.13 87 1011.8
20260507105455 12 11 0.0 1.6 0.00 0.36 0.10 87 1011.6
20260507104525 12 29 0.0 0.0 0.00 0.36 0.10 87 1011.0
20260507103455 13 256 0.0 0.0 0.00 0.36 0.10 86 1011.0
20260507102455 13 38 0.0 0.0 0.00 0.36 0.10 85 1011.3
20260507101455 13 360 0.0 0.0 0.00 0.36 0.10 85 1011.1
20260507100455 13 264 3.2 3.2 0.00 0.36 0.10 85 1011.2
20260507095456 13 22 0.0 11.3 0.00 0.36 0.10 85 1010.5
20260507094526 13 325 0.0 9.7 0.00 0.36 0.10 86 1010.7
20260507092455 14 36 0.0 1.6 0.00 0.36 0.10 87 1010.7
20260507090455 14 43 0.0 3.2 0.00 0.36 0.10 88 1010.6
20260507084526 14 328 1.6 3.2 0.00 0.36 0.10 89 1010.5
20260507083456 14 331 1.6 3.2 0.00 0.36 0.10 89 1010.4
20260507082455 14 140 1.6 1.6 0.00 0.36 0.10 90 1010.0
20260507081456 15 297 0.0 0.0 0.00 0.36 0.10 90 1009.9
20260507080455 15 290 0.0 0.0 0.00 0.36 0.10 89 1010.3
20260507074456 15 360 0.0 0.0 0.00 0.36 0.10 90 1010.4
20260507073456 15 344 0.0 3.2 0.00 0.36 0.10 90 1010.3
20260507072456 15 350 1.6 3.2 0.00 0.36 0.10 90 1009.9
20260507071456 15 48 0.0 4.8 0.00 0.36 0.10 90 1009.6
20260507070526 16 42 0.0 1.6 0.00 0.36 0.10 91 1009.4